User: anonymous   Login
Location: Caltech
(34.1382°N, 118.1253°W)
Time: 01:41:40
(UTC-08:00)
Language:

Hamsat - Orbit

View from above orbital plane
View from above orbital plane
View from above satellite
View from above satellite

Ground track
Ground track

The orbit data is extracted from the following two-line orbital elements,

1 28650U 05017B   17350.50165941 +.00000236 +00000-0 +30904-4 0  9992
2 28650 097.6749 318.9099 0022085 245.9334 113.9573 14.88829222683227
Epoch (UTC): 16 December 2017 12:02:23
Eccentricity: 0.0022085
inclination: 97.6749°
perigee height: 586 km
apogee height: 617 km
right ascension of ascending node: 318.9099°
argument of perigee: 245.9334°
revolutions per day: 14.88829222
mean anomaly at epoch: 113.9573°
orbit number at epoch: 68322

The dashed part of the orbit path shows where the satellite is in the earth's shadow,  

DLR